Tracking 30692 objects as of 16-Jun-2025
HD Live streaming from Space Station
objects crossing your sky now

LEMUR 1

Track LEMUR 1 now!
10-day predictions
LEMUR 1 is classified as:


NORAD ID: 40044
Int'l Code: 2014-033AL
Perigee: 591.9 km
Apogee: 662.1 km
Inclination: 97.7 °
Period: 97.1 minutes
Semi major axis: 6997 km
RCS: Unknown
Launch date: June 19, 2014
Source: United States (US)
Launch site: Orenburg, Russia (OREN)
Your satellite tracking list
Your tracking list is empty




NASA's NSSDC Master Catalog

Two Line Element Set (TLE):
1 40044U 14033AL  25167.40602230  .00001894  00000-0  23453-3 0  9993
2 40044  97.7410 322.0290 0050154 195.5756 164.3918 14.83006250591616
Source of the keplerian elements: AFSPC